Regional Weather Roundup
Issued by NWS

Home | Current Version | Previous Version | Graphics & Text | Print | Product List | Glossary On
Versions: 1 2 3 4 5 6 7 8 9 10 11 12 13 14 15 16 17 18 19 20 21 22 23 24 25 26 27
000
ASUS45 KBOI 160510
RWRID

IDAHO REGIONAL WEATHER ROUNDUP
NATIONAL WEATHER SERVICE BOISE ID
1000 PM MST SUN JAN 15 2017

NOTE: "FAIR" INDICATES FEW OR NO CLOUDS BELOW 12000 FEET
WITH NO SIGNIFICANT WEATHER AND/OR OBSTRUCTIONS TO VISIBILITY

IDZ012-014-160600-
SOUTHWEST IDAHO


CITY           SKY/WX    TMP DP  RH WIND       PRES   REMARKS
BOISE          CLEAR      3   0  87 SW3       30.39R FOG
CALDWELL       CLEAR      0  -3  87 SW5       30.46R WCI -10
MOUNTAIN HOME  DRIZZLE    5   4  98 NE3       30.39R
$$

IDZ016-017-160600-
SOUTHCENTRAL IDAHO


CITY           SKY/WX    TMP DP  RH WIND       PRES   REMARKS
BURLEY         CLOUDY    13   9  84 NW3       30.27R
JEROME         LGT SNOW   8   5  87 CALM      30.30R FOG
TWIN FALLS     CLOUDY     9   7  92 CALM      30.29R FOG
$$

IDZ019>023-160600-
SOUTHEAST IDAHO


CITY           SKY/WX    TMP DP  RH WIND       PRES   REMARKS
IDAHO FALLS    CLOUDY    -5  -8  87 MISG      30.26R
POCATELLO      CLOUDY     7   3  84 SW6       30.28R WCI  -3
REXBURG        CLOUDY    -1  -5  82 CALM      30.23R
$$

IDZ006-010-011-018-031-032-160600-
CENTRAL IDAHO MOUNTAINS


CITY           SKY/WX    TMP DP  RH WIND       PRES   REMARKS
MCCALL         PTCLDY    -1  -6  79 E3        30.21R
HAILEY         CLEAR      5   0  78 NW6       30.19R WCI  -6
STANLEY          N/A    -11 -16  78 CALM      30.23R
SALMON         CLOUDY   -18 -22  83 CALM      30.45S
CHALLIS        PTCLDY   -22 -27  77 CALM      30.35R
$$

IDZ002-004-006-007-026-160600-
NORTHERN IDAHO


CITY           SKY/WX    TMP DP  RH WIND       PRES   REMARKS
LEWISTON       CLOUDY    14  11  87 CALM      30.47S
LOWELL           N/A     11   6  81 CALM      30.48R
COEUR D`ALENE  CLEAR      0  -4  83 CALM      30.38R
MULLAN PASS    CLEAR     18   8  65 W5        30.14S WCI  11
$$




USA.gov is the U.S. government's official web portal to all federal, state and local government web resources and services.